Regional Weather Roundup
Issued by NWS

Home | Current Version | Previous Version | Text Only | Print | Product List | Glossary On
Versions: 1 2 3 4 5 6 7 8 9 10 11 12 13 14 15 16 17 18 19 20 21 22 23 24 25 26 27 28 29 30 31 32 33 34 35 36 37 38 39 40 41 42 43 44 45 46 47 48 49 50
000
ASUS43 KMKX 052300
RWRWI

WISCONSIN REGIONAL WEATHER ROUNDUP
NATIONAL WEATHER SERVICE MILWAUKEE/SULLIVAN WI
500 PM CST MON DEC 05 2016

NOTE: "FAIR" INDICATES FEW OR NO CLOUDS BELOW 12,000 FEET WITH NO
SIGNIFICANT WEATHER AND/OR OBSTRUCTIONS TO VISIBILITY.

WIZ001-002-006>008-014>016-023>028-060000-
NORTHWEST WISCONSIN

CITY           SKY/WX    TMP DP  RH WIND       PRES   REMARKS
SUPERIOR ARPT  LGT RAIN  36  33  90 E9        29.76F WCI  29
ASHLAND        CLOUDY    38  29  70 MISG      29.81R
HAYWARD        LGT SNOW  34  30  85 SE8       29.77F FOG     WCI  27
SIREN          CLOUDY    34  32  94 SE8       29.69F WCI  27
CUMBERLAND     CLOUDY    32  32 100 SE15      29.72F FOG     WCI  22
RICE LAKE      CLOUDY    33  33  99 SE14G20   29.76F WCI  24
CHETEK         CLOUDY    33  33 100 SE7       29.77S WCI  27
LADYSMITH      CLOUDY    34  32  92 SE9       29.81F WCI  27
EAU CLAIRE     NOT AVBL
MENOMONIE      CLOUDY    36  33  88 SE14      29.75F WCI  27
NEW RICHMOND   CLOUDY    37  32  83 SE12G18   29.70R WCI  29
OSCEOLA        CLOUDY    37  37 100 SE15      29.71R WCI  27
$$

WIZ003>005-009-010-017-018-060000-
NORTH CENTRAL WISCONSIN

CITY           SKY/WX    TMP DP  RH WIND       PRES   REMARKS
MANITOWISH WTR CLOUDY    34  31  90 S9        29.82S WCI  27
ARBOR VITAE    CLOUDY    37  32  84 S9        29.84R WCI  30
WOODRUFF       CLOUDY    37  32  84 S9        29.84R WCI  30
RHINELANDER    CLOUDY    35  31  85 S9        29.86R WCI  28
EAGLE RIVER    MOCLDY    34  29  80 S5        29.84R WCI  30
LAND O LAKES   CLOUDY    35  30  83 S3        29.85R
PHILLIPS       CLOUDY    32  31  95 S8        29.82R WCI  25
TOMAHAWK       CLOUDY    32  30  92 S3        29.86R
MEDFORD        CLOUDY    32  31  95 SE10      29.84S FOG     WCI  23
MERRILL        CLOUDY    33  32  96 S3        29.89R
$$

WIZ029-030-035-036-043>047-060000-
CENTRAL WISCONSIN

CITY           SKY/WX    TMP DP  RH WIND       PRES   REMARKS
WAUSAU         CLOUDY    33  31  92 S9        29.88R WCI  25
MOSINEE        NOT AVBL
MARSHFIELD     CLOUDY    33  31  92 SE12      29.85F FOG     WCI  24
STEVENS POINT  CLOUDY    32  32 100 S5        29.91R FOG     WCI  27
WAUPACA        CLOUDY    35  32  88 S6        29.94R FOG     WCI  30
WAUTOMA        CLOUDY    33  31  92 S5        29.94R WCI  29
WISC RAPIDS    CLOUDY    34  33  96 SE7       29.91S WCI  28
CAMP DOUGLAS   NOT AVBL
$$

WIZ011>013-019>022-031-037>040-048>050-060000-
NORTHEAST WISCONSIN

CITY           SKY/WX    TMP DP  RH WIND       PRES   REMARKS
ANTIGO         CLOUDY    31  31 100 S10       29.90R FOG     WCI  22
SHAWANO        CLOUDY    35  32  90 S3        29.94R
OCONTO         CLOUDY    33  31  91 S8        29.96R WCI  27
STURGEON BAY   CLOUDY    34  31  88 S12       29.97R WCI  25
GREEN BAY      CLOUDY    35  33  92 S8        29.96R WCI  29
MANITOWOC      NOT AVBL
APPLETON       CLOUDY    34  32  93 S8        29.93R FOG     WCI  27
CLINTONVILLE   CLOUDY    32  32 100 S7        29.93R FOG     WCI  26
OSHKOSH        CLOUDY    33  30  88 S10       29.94S WCI  25
$$

WIZ032>034-041-042-053>061-060000-
SOUTHWEST WISCONSIN

CITY           SKY/WX    TMP DP  RH WIND       PRES   REMARKS
LA CROSSE      CLOUDY    38  31  76 S14       29.83F WCI  30
SPARTA         CLOUDY    36  32  85 S6        29.87R WCI  31
VIROQUA        CLOUDY    33  32  98 SE15      29.84F WCI  22
BOSCOBEL       CLOUDY    35  31  85 CALM      29.90F FOG
PRAIRIE DU CHI CLOUDY    34  30  85 SE10      29.88F WCI  26
PLATTEVILLE    CLOUDY    33  33 100 SE10      29.90F WCI  25
$$

WIZ056-057-062-063-064-067-068-060000-
SOUTH CENTRAL WISCONSIN

CITY           SKY/WX    TMP DP  RH WIND       PRES   REMARKS
REEDSBURG      CLOUDY    32  32  99 SE3       29.90F
BARABOO/DELLS  MOCLDY    32  31  95 S10       29.91F WCI  24
LONE ROCK      CLOUDY    33  30  88 SE7       29.92F WCI  27
MINERAL POINT  CLOUDY    34  34 100 SE12      29.90F FOG     WCI  25
MADISON        CLOUDY    32  30  92 S10       29.94S WCI  24
MIDDLETON      NOT AVBL
WATERTOWN      CLOUDY    31  31 100 S9        29.96R WCI  23
MONROE         FOG       32  32 100 S8        29.93S VSB 1/4 WCI  25
JANESVILLE     CLOUDY    34  34 100 S7        29.95S FOG     WCI  28
$$

WIZ051-052-058>065-066-070>072-060000-
SOUTHEAST WISCONSIN

CITY           SKY/WX    TMP DP  RH WIND       PRES   REMARKS
MILWAUKEE      CLOUDY    34  31  88 S8        29.99R WCI  27
WAUKESHA       NOT AVBL
MILWAUKEE/TIMM CLOUDY    32  28  86 S6        29.99S FOG     WCI  26
RACINE         CLOUDY    33  31  92 S5        30.01R FOG     WCI  29
BURLINGTON     CLOUDY    32  31  96 CALM      29.98R
KENOSHA        CLOUDY    33  31  92 S3        29.99R FOG
FOND DU LAC    CLOUDY    33  29  85 S10       29.95F WCI  25
SHEBOYGAN      CLOUDY    33  31  92 S8        29.96S WCI  26
WEST BEND      CLOUDY    32  32 100 S7        29.97S WCI  26
JUNEAU         CLOUDY    31  30  96 S15       29.96S FOG     WCI  20
$$

LSZ147-162-060000-
LAKE SUPERIOR

STATION/POSITION TIME  TEMP    WIND        PRES    WAVE
                       AIR SEA DIR/SP/G            HT/PER
                 (UTC) (F)     (DEG/KT/KT) (MB)    (FT/S)
DEVILS ISLAND    2200   36      60/ 10/ 12 1009.9R
PORT WING        2240   37      80/  2/  4 1009.1R
SAXON HARBOR     2230   39     180/  3/  5 1009.8R
$$

LMZ867-665-643>646-060000-
LAKE MICHIGAN

STATION/POSITION TIME  TEMP    WIND        PRES    WAVE
                       AIR SEA DIR/SP/G            HT/PER
                 (UTC) (F)     (DEG/KT/KT) (MB)    (FT/S)
CHAMBERS ISLAND  2240   36     150/  5/ 10 1013.5R
NORTHPORT PIER   2240   35      CALM  /  5 1013.5S
SISTER BAY       2208   35     170/  9/ 10   N/A
ALGOMA LAKESHORE 2251          240/ 16/ 21   N/A
KEWAUNEE LAKESHO 2230   34     210/ 10/ 15 1014.3R
SHEBOYGAN LAKESH 2200   35     200/ 16/ 19 1015.2R
PORT WASHINGTON  2240   34     190/  8/ 11 1016.3S
MILWAUKEE LAKESH 2230   33     190/  9/ 10   N/A
KENOSHA   LAKESH 2200   33     200/  5/  8 1015.6
$$

TC  - TEMPERATURE IN CELSIUS
VSB - VISIBILITY IN STATUTE MILES
WCI - WIND CHILL INDEX
HX  - HEAT INDEX





USA.gov is the U.S. government's official web portal to all federal, state and local government web resources and services.